User: anonymous   Login
Location: Unspecified
(0.0000°N, 0.0000°E)
Time: 13:20:29
(UTC+01:00)
Language:

Iridium 15 - Orbit

View from above orbital plane
View from above orbital plane
View from above satellite
View from above satellite

Ground track
Ground track

The orbit data is extracted from the following two-line orbital elements,

1 24869U 97034A   15028.54159153  .00000151  00000-0  46730-4 0  2456
2 24869 086.3949 025.7379 0002220 105.8678 007.1214 14.34217636919128
Epoch (UTC): 28 January 2015 12:59:53
Eccentricity: 0.0002220
inclination: 86.3949°
perigee height: 776 km
apogee height: 779 km
right ascension of ascending node: 25.7379°
argument of perigee: 105.8678°
revolutions per day: 14.34217636
mean anomaly at epoch: 7.1214°
orbit number at epoch: 91912

The dashed part of the orbit path shows where the satellite is in the earth's shadow,  

DLR